Telluride, CO

8:31 AM MDT on August 30, 2016 (GMT -0600)
Telluride Regional

Weather History for KTEX - July, 2014

Change the Weather History Date:

Wednesday, July 2, 2014

  Actual Average Record
Temperature  
Mean Temperature 63 °F -  
Max Temperature 78 °F 72 °F 84 °F (2002)
Min Temperature 48 °F 47 °F 42 °F (2004)
Degree Days  
Heating Degree Days 2    
Growing Degree Days 13 (Base 50)    
Moisture  
Dew Point 22 °F    
Average Humidity 22    
Maximum Humidity 38    
Minimum Humidity 11    
Precipitation  
Precipitation 0.00 in - - ()
Sea Level Pressure  
Sea Level Pressure 30.39 in    
Wind  
Wind Speed 6 mph (SSE)    
Max Wind Speed 15 mph    
Max Gust Speed 21 mph    
Visibility 10 miles    
Events      
Averages and records for this station are not official NWS values.
T = Trace of Precipitation, MM = Missing Value Source: NWS Daily Summary

Daily Weather History Graph

Daily Weather History Graph

Search for Another Location

Airport or City:

Trip Planner

Search our weather history database for the weather conditions in past years. The results will help you decide how hot, cold, wet, or windy it might be!

Date:

Astronomy

Jul. 02, 2014 Rise Set
Actual Time 5:53 AM MDT 8:37 PM MDT
Civil Twilight 5:22 AM MDT 9:09 PM MDT
Nautical Twilight 4:43 AM MDT 9:48 PM MDT
Astronomical Twilight 3:58 AM MDT 10:32 PM MDT
Moon 10:54 AM MDT (7/2) 11:38 PM MDT (7/2)
Length of Visible Light 15h 47m
Length of Day
14h 44m
Waxing Crescent, 25% of the Moon is Illuminated
Jul 2
Waxing Crescent
Jul 5
First Quarter
Jul 12
Full
Jul 18
Last Quarter
Jul 26
New

Hourly Weather History & Observations

Time (MDT) Temp. Dew Point Humidity Pressure Visibility Wind Dir Wind Speed Gust Speed Precip Events Conditions
12:16 AM 55.4 °F 24.8 °F 31% 30.37 in 10.0 mi ESE 5.8 mph - N/A   Clear
12:36 AM 55.4 °F 24.8 °F 31% 30.37 in 10.0 mi East 4.6 mph - N/A   Clear
12:59 AM 53.6 °F 24.8 °F 33% 30.37 in 10.0 mi ESE 6.9 mph - N/A   Clear
1:16 AM 53.6 °F 24.8 °F 33% 30.37 in 10.0 mi SE 8.1 mph - N/A   Clear
1:36 AM 53.6 °F 24.8 °F 33% 30.36 in 10.0 mi ESE 4.6 mph - N/A   Clear
1:56 AM 53.6 °F 24.8 °F 33% 30.36 in 10.0 mi East 4.6 mph - N/A   Clear
2:17 AM 51.8 °F 21.2 °F 30% 30.36 in 10.0 mi SE 6.9 mph - N/A   Clear
2:36 AM 51.8 °F 21.2 °F 30% 30.36 in 10.0 mi Calm Calm - N/A   Clear
3:19 AM 51.8 °F 21.2 °F 30% 30.36 in 10.0 mi SE 4.6 mph - N/A   Clear
3:37 AM 51.8 °F 21.2 °F 30% 30.35 in 10.0 mi SE 9.2 mph - N/A   Clear
4:17 AM 48.2 °F 21.2 °F 34% 30.36 in 10.0 mi NE 3.5 mph - N/A   Clear
4:37 AM 53.6 °F 19.4 °F 26% 30.35 in 10.0 mi Calm Calm - N/A   Clear
4:58 AM 53.6 °F 19.4 °F 26% 30.36 in 10.0 mi ESE 8.1 mph - N/A   Clear
5:17 AM 51.8 °F 21.2 °F 30% 30.36 in 10.0 mi ESE 9.2 mph - N/A   Clear
5:37 AM 51.8 °F 19.4 °F 28% 30.37 in 10.0 mi ESE 8.1 mph - N/A   Clear
5:57 AM 51.8 °F 19.4 °F 28% 30.37 in 10.0 mi SE 4.6 mph - N/A   Clear
6:17 AM 53.6 °F 21.2 °F 28% 30.38 in 10.0 mi ESE 5.8 mph - N/A   Clear
6:37 AM 51.8 °F 24.8 °F 35% 30.39 in 10.0 mi ESE 5.8 mph - N/A   Clear
6:56 AM 51.8 °F 26.6 °F 38% 30.40 in 10.0 mi East 3.5 mph - N/A   Clear
7:17 AM 55.4 °F 24.8 °F 31% 30.40 in 10.0 mi East 3.5 mph - N/A   Clear
7:37 AM 57.2 °F 21.2 °F 25% 30.40 in 10.0 mi ESE 4.6 mph - N/A   Clear
7:57 AM 57.2 °F 24.8 °F 29% 30.41 in 10.0 mi ESE 4.6 mph - N/A   Clear
8:17 AM 59.0 °F 28.4 °F 31% 30.41 in 10.0 mi Calm Calm - N/A   Clear
8:37 AM 60.8 °F 26.6 °F 27% 30.41 in 10.0 mi Calm Calm - N/A   Clear
8:57 AM 64.4 °F 26.6 °F 24% 30.42 in 10.0 mi Calm Calm - N/A   Clear
9:17 AM 66.2 °F 26.6 °F 23% 30.42 in 10.0 mi Calm Calm - N/A   Clear
9:57 AM 71.6 °F 19.4 °F 14% 30.42 in 10.0 mi West 6.9 mph - N/A   Clear
10:19 AM 71.6 °F 17.6 °F 13% 30.42 in 10.0 mi West 11.5 mph - N/A   Clear
10:57 AM 71.6 °F 17.6 °F 13% 30.42 in 10.0 mi WSW 9.2 mph - N/A   Clear
11:17 AM 73.4 °F 17.6 °F 12% 30.42 in 10.0 mi WSW 8.1 mph - N/A   Clear
12:17 PM 73.4 °F 19.4 °F 13% 30.41 in 10.0 mi SW 15.0 mph 20.7 mph N/A   Clear
12:37 PM 75.2 °F 19.4 °F 12% 30.42 in 10.0 mi West 9.2 mph 20.7 mph N/A   Clear
1:37 PM 75.2 °F 17.6 °F 11% 30.42 in 10.0 mi West 13.8 mph 19.6 mph N/A   Clear
1:57 PM 77.0 °F 19.4 °F 12% 30.41 in 10.0 mi West 10.4 mph 16.1 mph N/A   Clear
2:57 PM 75.2 °F 19.4 °F 12% 30.42 in 10.0 mi West 13.8 mph 18.4 mph N/A   Clear
3:17 PM 78.8 °F 19.4 °F 11% 30.40 in 10.0 mi West 6.9 mph - N/A   Clear
3:57 PM 77.0 °F 19.4 °F 12% 30.39 in 10.0 mi WSW 10.4 mph - N/A   Clear
4:17 PM 77.0 °F 19.4 °F 12% 30.38 in 10.0 mi WSW 9.2 mph - N/A   Clear
4:57 PM 77.0 °F 17.6 °F 11% 30.38 in 10.0 mi West 9.2 mph 17.3 mph N/A   Clear
5:57 PM 75.2 °F 19.4 °F 12% 30.36 in 10.0 mi Calm Calm - N/A   Clear
6:17 PM 77.0 °F 17.6 °F 11% 30.36 in 10.0 mi WSW 8.1 mph - N/A   Clear
6:38 PM 75.2 °F 15.8 °F 11% 30.36 in 10.0 mi West 3.5 mph 19.6 mph N/A   Clear
6:57 PM 75.2 °F 17.6 °F 11% 30.36 in 10.0 mi West 11.5 mph - N/A   Clear
7:18 PM 75.2 °F 17.6 °F 11% 30.36 in 10.0 mi WNW 4.6 mph - N/A   Clear
7:37 PM 75.2 °F 17.6 °F 11% 30.36 in 10.0 mi West 6.9 mph - N/A   Clear
7:57 PM 73.4 °F 19.4 °F 13% 30.36 in 10.0 mi WNW 3.5 mph - N/A   Clear
8:17 PM 69.8 °F 21.2 °F 16% 30.37 in 10.0 mi Calm Calm - N/A   Clear
8:37 PM 68.0 °F 21.2 °F 17% 30.38 in 10.0 mi Calm Calm - N/A   Clear
8:57 PM 68.0 °F 21.2 °F 17% 30.38 in 10.0 mi Calm Calm - N/A   Clear
9:57 PM 64.4 °F 24.8 °F 22% 30.41 in 10.0 mi ESE 3.5 mph - N/A   Clear
10:37 PM 62.6 °F 24.8 °F 24% 30.42 in 10.0 mi ESE 4.6 mph - N/A   Clear
10:57 PM 60.8 °F 24.8 °F 25% 30.43 in 10.0 mi ESE 5.8 mph - N/A   Clear
11:17 PM 59.0 °F 24.8 °F 27% 30.43 in 10.0 mi ESE 5.8 mph - N/A   Clear
11:37 PM 60.8 °F 24.8 °F 25% 30.43 in 10.0 mi SE 5.8 mph - N/A   Clear